Weather History for PASN - November, 2013

Change the Weather History Date:

Saturday, November 16, 2013

  Actual Average Record
Temperature  
Mean Temperature 36 °F 33 °F  
Max Temperature 37 °F 37 °F 45 °F (1970)
Min Temperature 34 °F 29 °F 18 °F (1971)
Degree Days  
Heating Degree Days 29 32  
Month to date heating degree days 421 494  
Since 1 July heating degree days 2800 2954  
Cooling Degree Days 0    
Month to date cooling degree days 0  
Year to date cooling degree days 0  
Moisture  
Dew Point 28 °F    
Average Humidity 0    
Maximum Humidity 0    
Minimum Humidity 0    
Precipitation  
Precipitation 0.00 in 0.10 in 1.35 in (1964)
Month to date precipitation 3.28 1.60  
Year to date precipitation 23.87 20.13  
Snow  
Snow 0.00 in 0.30 in 11.80 in (1964)
Month to date snowfall 0.1 3.7  
Since 1 July snowfall 0.1 5.7  
Since 1 September snowfall 0.1 5.7  
Snow Depth 0.00 in    
Sea Level Pressure  
Sea Level Pressure 30.61 in    
Wind  
Wind Speed 16 mph (ENE)    
Max Wind Speed 23 mph    
Max Gust Speed 28 mph    
Visibility 10 miles    
Events      
T = Trace of Precipitation, MM = Missing Value Source: NWS Daily Summary

Daily Weather History Graph

Daily Weather History Graph

Search for Another Location

Airport or City:

Trip Planner

Search our weather history database for the weather conditions in past years. The results will help you decide how hot, cold, wet, or windy it might be!

Date:

Astronomy

Nov. 16, 2013 Rise Set
Actual Time 10:06 AM AKST 6:04 PM AKST
Civil Twilight 9:22 AM AKST 6:48 PM AKST
Nautical Twilight 8:34 AM AKST 7:36 PM AKST
Astronomical Twilight 7:49 AM AKST 8:21 PM AKST
Moon 5:55 PM AKST (11/16) 9:06 AM AKST (11/16)
Length of Visible Light 9h 26m
Length of Day
7h 58m
Waxing Gibbous, 99% of the Moon is Illuminated
Nov 16
Waxing Gibbous
Nov 17
Full
Nov 25
Last Quarter
Dec 2
New
Dec 9
First Quarter

Hourly Weather History & Observations

Time (AKST) Temp. Windchill Dew Point Humidity Pressure Visibility Wind Dir Wind Speed Gust Speed Precip Events Conditions
12:53 AM 35.1 °F 25.5 °F 28.9 °F 78% 30.57 in 10.0 mi ENE 15.0 mph 25.3 mph N/A   Mostly Cloudy
1:53 AM 35.1 °F 25.9 °F 28.0 °F 76% 30.60 in 10.0 mi NE 13.8 mph - N/A   Mostly Cloudy
2:53 AM 35.1 °F 25.2 °F 28.0 °F 76% 30.60 in 10.0 mi ENE 16.1 mph - N/A   Mostly Cloudy
3:18 AM 35.6 °F 25.9 °F 28.4 °F 75% 30.60 in 10.0 mi ENE 16.1 mph - N/A   Mostly Cloudy
3:51 AM 35.6 °F 25.9 °F 28.4 °F 75% 30.61 in 10.0 mi ENE 16.1 mph - N/A   Overcast
3:53 AM 35.1 °F 25.5 °F 28.0 °F 76% 30.61 in 10.0 mi ENE 15.0 mph - N/A   Overcast
4:19 AM 35.6 °F 27.1 °F 26.6 °F 70% 30.60 in 10.0 mi ENE 12.7 mph - N/A   Overcast
4:53 AM 35.1 °F 27.4 °F 28.0 °F 76% 30.61 in 10.0 mi ENE 10.4 mph - N/A   Overcast
5:53 AM 36.0 °F 26.3 °F 28.0 °F 73% 30.61 in 10.0 mi ENE 16.1 mph 20.7 mph N/A   Mostly Cloudy
6:53 AM 35.1 °F 25.5 °F 28.9 °F 78% 30.60 in 10.0 mi NE 15.0 mph - N/A   Mostly Cloudy
7:53 AM 36.0 °F 25.6 °F 28.0 °F 73% 30.60 in 10.0 mi ENE 18.4 mph - N/A   Mostly Cloudy
8:53 AM 36.0 °F 26.0 °F 28.0 °F 73% 30.61 in 10.0 mi ENE 17.3 mph - N/A   Mostly Cloudy
9:53 AM 36.0 °F 27.1 °F 28.9 °F 76% 30.63 in 10.0 mi ENE 13.8 mph - N/A   Overcast
10:03 AM 35.6 °F 26.2 °F 28.4 °F 75% 30.62 in 10.0 mi ENE 15.0 mph - N/A   Mostly Cloudy
10:14 AM 35.6 °F 26.6 °F 30.2 °F 81% 30.62 in 10.0 mi ENE 13.8 mph - N/A   Mostly Cloudy
10:53 AM 36.0 °F 26.7 °F 30.0 °F 79% 30.63 in 10.0 mi ENE 15.0 mph 24.2 mph N/A   Overcast
11:53 AM 36.0 °F 27.1 °F 30.0 °F 79% 30.64 in 10.0 mi ENE 13.8 mph - N/A   Overcast
12:53 PM 36.0 °F 26.7 °F 28.9 °F 76% 30.64 in 10.0 mi ENE 15.0 mph - N/A   Scattered Clouds
1:53 PM 36.0 °F 25.6 °F 28.9 °F 76% 30.63 in 10.0 mi ENE 18.4 mph 25.3 mph N/A   Overcast
2:53 PM 36.0 °F 26.0 °F 28.0 °F 73% 30.63 in 10.0 mi ENE 17.3 mph - N/A   Mostly Cloudy
3:53 PM 36.0 °F 24.7 °F 28.0 °F 73% 30.62 in 10.0 mi ENE 21.9 mph - N/A   Mostly Cloudy
4:53 PM 36.0 °F 25.6 °F 28.0 °F 73% 30.60 in 10.0 mi ENE 18.4 mph 25.3 mph N/A   Mostly Cloudy
5:53 PM 35.1 °F 24.5 °F 28.0 °F 76% 30.61 in 10.0 mi ENE 18.4 mph - N/A   Partly Cloudy
6:53 PM 35.1 °F 24.1 °F 26.1 °F 70% 30.61 in 10.0 mi East 19.6 mph - N/A   Partly Cloudy
7:53 PM 34.0 °F 23.0 °F 26.1 °F 73% 30.61 in 10.0 mi ENE 18.4 mph - N/A   Partly Cloudy
8:53 PM 35.1 °F 23.8 °F 26.1 °F 70% 30.60 in 10.0 mi East 20.7 mph 26.5 mph N/A   Mostly Cloudy
9:53 PM 35.1 °F 24.1 °F 25.0 °F 67% 30.59 in 10.0 mi East 19.6 mph 25.3 mph N/A   Partly Cloudy
10:53 PM 36.0 °F 25.3 °F 27.0 °F 70% 30.58 in 10.0 mi East 19.6 mph 26.5 mph N/A   Overcast
11:53 PM 35.1 °F 24.1 °F 26.1 °F 70% 30.59 in 10.0 mi East 19.6 mph 28.8 mph N/A   Overcast